Flag for Sweden Weather past 2 weeks in Borås, Sweden

Now
32 °F

Ice fog.


Feels Like: 32 °F
Forecast: 34 / 47 °F
Wind: No wind

Location: Gothenburg / Landvetter

Current Time: Mar 27, 2015 at 1:50:20 AM

Latest Report: Mar 27, 2015 at 1:20 AM


Visibility: 2 mi

Pressure: 29.71 "Hg

Humidity: 93%

Dew point: 30 °F

Location of BoråsLocation

Historic Weather in Borås — Graph

°F

Borås temperature yesterday

Maximum temperature yesterday: 39 °F (at 1:20 PM)
Minimum temperature yesterday: 32 °F (at 12:20 AM)
Average temperature yesterday: 35 °F

Past Weeks' High & Low Weather Summary

 TemperatureHumidityPressure
High52 °F (Mar 17, 2:20 PM)100% (Mar 20, 6:20 AM)30.74 "Hg (Mar 20, 6:20 AM)
Low21 °F (Mar 22, 12:50 AM)31% (Mar 13, 1:20 PM)29.62 "Hg (Mar 26, 2:50 PM)
Average38 °F72%30.27 "Hg
* Reported Mar 12 12:50 AM — Mar 27 12:50 AM, Borås, Weather by CustomWeather, © 2015

Note: Actual official high and low records may vary slightly from our data, if they occured in-between our weather recording intervals... More about our weather records

Advertising

Borås weather history for previous 24 hours

 ConditionsComfort  
Time TempWeatherWind HumidityBarometerVisibility
12:50 AM
Fri, Mar 27
32 °FIce fog.No wind100%29.71 "Hg2 mi
12:20 AM32 °FIce fog.2 mph100%29.71 "Hg1 mi
11:50 PM
Thu, Mar 26
32 °FIce fog.2 mph93%29.71 "Hg0 mi
11:20 PM32 °FMostly cloudy.3 mph100%29.71 "Hg0 mi
10:50 PM34 °FLow clouds.3 mph100%29.71 "Hg0 mi
10:20 PM32 °FLight fog.2 mph100%29.71 "HgN/A
9:50 PM34 °FLight fog.6 mph93%29.68 "HgN/A
9:20 PM34 °FLight fog.3 mph93%29.68 "HgN/A
8:50 PM36 °FClear.2 mph93%29.68 "Hg10 mi
8:20 PM36 °FClear.No wind93%29.68 "Hg10 mi
7:50 PM36 °FFog.3 mph93%29.68 "HgN/A
7:20 PM36 °FFog.2 mph100%29.68 "Hg0 mi
6:50 PM36 °FFog.5 mph100%29.68 "Hg2 mi
6:20 PM37 °FLow clouds.3 mph93%29.68 "Hg1 mi
5:50 PM37 °FFog.6 mph93%29.65 "Hg1 mi
5:20 PM37 °FFog.7 mph100%29.65 "Hg0 mi
4:50 PM37 °FFog.9 mph100%29.65 "Hg0 mi
4:20 PM39 °FFog.8 mph93%29.65 "Hg2 mi
3:50 PM39 °FFog.9 mph93%29.65 "Hg1 mi
3:20 PM39 °FFog.6 mph93%29.65 "Hg3 mi
2:50 PM39 °FLight rain. Broken clouds.7 mph100%29.62 "Hg3 mi
2:20 PM39 °FLight rain. Broken clouds.8 mph93%29.65 "Hg2 mi
1:50 PM39 °FLight rain. Partly sunny.7 mph93%29.65 "Hg2 mi
1:20 PM39 °FDrizzle. Broken clouds.7 mph93%29.65 "Hg2 mi
12:50 PM37 °FLight rain. Fog.8 mph100%29.65 "Hg2 mi
12:20 PM37 °FFog.7 mph93%29.65 "Hg2 mi
11:50 AM37 °FDrizzle. Fog.9 mph93%29.65 "Hg3 mi
11:20 AM37 °FDrizzle. More clouds than sun.10 mph93%29.65 "Hg3 mi
10:50 AM36 °FRain. Fog.10 mph93%29.65 "Hg2 mi
10:20 AM36 °FLight rain. Partly sunny.12 mph93%29.65 "Hg5 mi
9:50 AM36 °FDrizzle. Partly sunny.12 mph93%29.65 "Hg5 mi
9:20 AM36 °FLight rain. Broken clouds.12 mph93%29.65 "Hg4 mi
8:50 AM36 °FLight rain. Mostly cloudy.12 mph87%29.65 "Hg6 mi
8:20 AM34 °FLight rain. Partly sunny.10 mph93%29.68 "Hg4 mi
7:50 AM36 °FLight rain. Broken clouds.14 mph87%29.68 "Hg2 mi
7:20 AM36 °FDrizzle. Partly sunny.16 mph81%29.65 "HgN/A
6:50 AM36 °FDrizzle. Partly sunny.16 mph81%29.68 "HgN/A
6:20 AM36 °FPassing clouds.21 mph75%29.68 "HgN/A
5:50 AM36 °FPassing clouds.22 mph75%29.68 "HgN/A
5:20 AM34 °FLight rain. Passing clouds.20 mph81%29.68 "HgN/A
4:50 AM34 °FDrizzle. Mostly cloudy.22 mph75%29.71 "HgN/A
4:20 AM34 °FDrizzle. Overcast.22 mph75%29.71 "HgN/A
3:50 AM34 °FDrizzle. Overcast.23 mph70%29.74 "HgN/A
3:20 AM34 °FDrizzle. Overcast.22 mph65%29.74 "HgN/A
2:50 AM32 °FOvercast.20 mph69%29.77 "Hg5 mi
2:20 AM32 °FLight rain. Overcast.22 mph69%29.77 "HgN/A
1:50 AM32 °FDrizzle. Overcast.17 mph64%29.80 "HgN/A
1:20 AM32 °FOvercast.16 mph64%29.83 "HgN/A
Weather by CustomWeather, © 2015

See weather overviewHow to use our weather pages